Location: Arcueil
(48.7999°N, 2.3326°E)
Time: 22:38:03
(UTC+00:00)

Okean-O - Visible Passes

Search period start: 22 September 2023 00:00
Search period end: 02 October 2023 00:00
Orbit: 635 x 637 km, 98.1° (Epoch: 21 September)

Date Brightness Start Highest point End Pass type
(mag) Time Alt. Az. Time Alt. Az. Time Alt. Az.
22 Sep 2.9 19:29:05 32° ESE 19:30:42 47° ENE 19:34:58 10° N visible
22 Sep 4.7 21:06:37 20° WSW 21:07:22 21° W 21:10:45 10° NW visible
23 Sep 4.6 18:15:55 10° ENE 18:17:20 11° NE 18:18:45 10° NE visible
23 Sep 2.5 19:51:51 49° SSE 19:52:59 77° ENE 19:57:26 10° N visible
23 Sep 5.3 21:29:23 13° W 21:29:58 13° W 21:32:04 10° WNW visible
24 Sep 4.2 18:37:05 12° E 18:39:23 17° ENE 18:42:16 10° NNE visible
24 Sep 2.9 20:14:37 55° SSW 20:15:20 65° WSW 20:19:46 10° NNW visible
25 Sep 3.7 18:59:51 21° E 19:01:30 26° ENE 19:05:10 10° N visible
25 Sep 3.7 20:37:22 38° WSW 20:37:45 39° W 20:41:55 10° NNW visible
26 Sep 3.1 19:22:36 34° ESE 19:23:41 40° ENE 19:27:50 10° N visible
26 Sep 4.5 21:00:07 25° W 21:00:15 25° W 21:03:54 10° NW visible
27 Sep 2.5 19:45:21 58° ESE 19:45:56 65° ENE 19:50:19 10° N visible
27 Sep 5.2 21:22:52 15° W 21:22:52 15° W 21:25:27 10° NW visible
28 Sep 4.4 18:30:35 12° E 18:32:24 15° ENE 18:34:55 10° NNE visible
28 Sep 2.6 20:08:06 76° SW 20:08:15 77° WSW 20:12:41 10° NNW visible
29 Sep 3.9 18:53:19 20° E 18:54:29 23° ENE 18:57:56 10° N visible
29 Sep 3.5 20:30:51 46° W 20:30:51 46° W 20:34:55 10° NNW visible
30 Sep 3.3 19:16:04 33° E 19:16:37 35° ENE 19:20:39 10° N visible
30 Sep 4.4 20:53:35 28° W 20:53:35 28° W 20:56:57 10° NW visible
01 Oct 2.7 19:38:49 55° ENE 19:38:51 55° ENE 19:43:10 10° N visible
01 Oct 5.1 21:16:19 17° WNW 21:16:19 17° WNW 21:18:40 10° NW visible
